AEHF-3 (USA 246)

Last updated on Sat Jun 14 2025 00:02:45 GMT+0000 (Coordinated Universal Time)

1 39256U 13050A 25164.50183851 .00000043 00000+0 00000+0 0 9998 2 39256 4.3791 70.4105 0087218 178.7041 69.4142 1.00267919 41952
UTC large
Height (km)
Speed (km/s)
/
Latitude / Longitude
Inclination (degrees)
Orbital Period (minutes)
Azimuth
Elevation
Range (km)
Doppler Factor

Next 0 passes for location: London (51.5072 / 0.1276)

Sorry there are no passes over London.